{"data":{"norad_id":66000,"epoch":"2026-05-25T01:14:25.939968Z","epoch_age_seconds":71336,"freshness":"FRESH","line1":"1 66000U 25231F   26145.05168912 -.00000103  00000+0  45908-4 0  9999","line2":"2 66000  50.0055 258.6266 0000906 151.5501 208.5420 13.29328307 29816","mean_motion":13.29328307,"eccentricity":9.06e-5,"inclination_deg":50.0055,"raan_deg":258.6266,"arg_perigee_deg":151.5501,"mean_anomaly_deg":208.542,"bstar":4.5908e-5,"rev_number":2981,"period_min":108.32538451316,"perigee_km":1148.6158771865,"apogee_km":1149.9798483836,"semimajor_km":7527.4348627851,"source":"CELESTRAK","updated_at":"2026-05-25T13:38:05.884295Z"}}